IZ2WMD-13 Weather Reports


time (UTC)temp
C
wind
direction
speed
KPH
gust
KPH
rain 1hr
cm
rain 24hr
cm
rain mn
cm
humidity
%
barometer
mb
20260506213148 11 0.0 0.0 0.00 0.00 0.00 93 1010.4
20260506205139 11 0.0 0.0 0.00 0.00 0.00 91 1010.5
20260506203132 11 0.0 0.0 0.00 0.00 0.00 88 1010.4
20260506185106 10 0.0 0.0 0.00 0.00 0.00 96 1009.4
20260506165037 11 0.0 0.0 0.00 0.00 0.00 95 1008.0
20260506161028 10 0.0 0.0 0.00 0.00 0.00 92 1007.3
20260506155023 11 0.0 0.0 0.00 0.00 0.00 85 1007.5
20260506145008 16 0.0 0.0 0.00 0.00 0.00 78 1005.9
20260506140958 18 0.0 0.0 0.00 0.00 0.00 71 1006.3
20260506134954 19 0.0 0.0 0.00 0.00 0.00 66 1006.7
20260506132948 20 0.0 0.0 0.00 0.00 0.00 67 1006.9
20260506124939 17 0.0 0.0 0.00 0.00 0.00 77 1007.6
20260506122934 19 0.0 0.0 0.00 0.00 0.00 70 1007.4
20260506110914 15 0.0 0.0 0.00 0.00 0.00 84 1008.3
20260506104909 15 0.0 0.0 0.00 0.00 0.00 84 1008.3
20260506102904 15 0.0 0.0 0.00 0.00 0.00 83 1008.4
20260506100900 15 0.0 0.0 0.00 0.00 0.00 81 1008.4
20260506094855 17 0.0 0.0 0.00 0.00 0.00 86 1008.3
20260506092850 15 0.0 0.0 0.00 0.00 0.00 99 1008.4
20260506090845 12 0.0 0.0 0.00 0.00 0.00 100 1008.5
20260506084840 12 0.0 0.0 0.00 0.00 0.00 100 1008.4
20260506082835 13 0.0 0.0 0.00 0.00 0.00 97 1008.3
20260506080831 13 0.0 0.0 0.00 0.00 0.00 97 1008.0
20260506072820 13 0.0 0.0 0.00 0.00 0.00 100 1008.3
20260506070815 12 0.0 0.0 0.00 0.00 0.00 100 1008.8
20260506050746 12 0.0 0.0 0.00 0.00 0.00 100 1009.3
20260506044741 12 0.0 0.0 0.00 0.00 0.00 100 1009.3
20260506042736 12 0.0 0.0 0.00 0.00 0.00 100 1009.3
20260506040731 12 0.0 0.0 0.00 0.00 0.00 100 1009.5
20260506034727 12 0.0 0.0 0.00 0.00 0.00 100 1009.3
20260506032721 12 0.0 0.0 0.00 0.00 0.00 100 1009.3
20260506030716 12 0.0 0.0 0.00 0.00 0.00 100 1009.6
20260506024712 12 0.0 0.0 0.00 0.00 0.00 100 1009.9
20260506022707 12 0.0 0.0 0.00 0.00 0.00 100 1010.3
20260506020702 12 0.0 0.0 0.00 0.00 0.00 100 1010.3
20260506014657 12 0.0 0.0 0.00 0.00 0.00 100 1010.2
20260506012652 12 0.0 0.0 0.00 0.00 0.00 100 1010.4
20260506010647 12 0.0 0.0 0.00 0.00 0.00 100 1010.6
20260506004642 12 0.0 0.0 0.00 0.00 0.00 100 1010.8
20260506002637 12 0.0 0.0 0.00 0.00 0.00 100 1011.0
20260506000632 12 0.0 0.0 0.00 0.00 0.00 100 1011.2
20260505234627 12 0.0 0.0 0.00 0.00 0.00 100 1011.3
20260505232622 12 0.0 0.0 0.00 0.00 0.00 100 1011.2
20260505224613 12 0.0 0.0 0.00 0.00 0.00 100 1011.5
20260505222606 12 0.0 0.0 0.00 0.00 0.00 100 1011.6
20260505220602 12 0.0 0.0 0.00 0.00 0.00 100 1011.7